[[{"header":{"parameterUnit":"m.s-1","parameterCategory":1,"la1":30.2991,"la2":30.254,"lo1":-89.0895,"lo2":-89.0444,"dy":0.0017,"dx":0.0017,"nx":28,"ny":28,"refTime":"2024-05-19T09:00:00:Z","depth":0,"parameterNumber":2,"parameterNumberName":"U-component_of_WINDS"},"data":[0,0,0,0,0,0,0,0,0,0,0,0,0,0,0,0,0,0,0,0,0,0,0,0,0,0,0,0,0,0,0,0,0,0,0,0,0,0,0,0,0,0,0,0,0,0,0,0,0,0,0,0,0,0,0,0,0,0,0.6447,0.6448,0,0.6501,0.6501,0.6502,0.6477,0.6476,0.6474,0.6473,0.6531,0.6534,0.6537,0,0,0,0,0,0,0,0,0,0,0,0,0,0.6326,0.6329,0.6447,0.6448,0.6449,0.6501,0.6501,0.6502,0.6477,0.6475,0.6474,0.6472,0.653,0.6533,0.6537,0,0,0,0,0,0,0,0,0,0,0,0,0,0.6379,0.633,0.6447,0.6442,0.6443,0.65,0.6501,0.6502,0.6477,0.6475,0.6473,0.6471,0.6529,0.6533,0.6537,0.6604,0,0,0.655,0.6552,0,0,0,0,0,0,0,0,0.6376,0.6384,0.6442,0.6443,0.6443,0.648,0.648,0.6537,0.6478,0.6464,0.6473,0.647,0.6516,0.6521,0.6536,0.6607,0.6609,0.6551,0.6553,0.6555,0.6556,0,0,0,0,0,0,0,0.6373,0.6381,0.6469,0.6443,0.6444,0.6438,0.6444,0.6491,0.6501,0.6465,0.6464,0.647,0.6516,0.6532,0.6537,0.661,0.655,0.6554,0.6557,0.6558,0.6738,0.674,0,0,0,0,0,0,0.6369,0.6379,0.6467,0.647,0.6404,0.6442,0.6448,0.647,0.65,0.6503,0.6472,0.6469,0.6525,0.6532,0.6539,0.6618,0.6555,0.6559,0.6561,0.6736,0.6739,0.6741,0,0,0,0,0,0,0.6366,0.6377,0.6465,0.6424,0.6435,0.6446,0.6472,0.6472,0.6488,0.6505,0.6507,0.6486,0.6524,0.6533,0.6588,0.662,0.6561,0.6565,0.6733,0.6737,0.674,0.6778,0,0,0,0,0,0,0.6363,0.6376,0.6401,0.6425,0.6437,0.6512,0.6474,0.6475,0.6495,0.6492,0.6519,0.6522,0.6523,0.6581,0.6592,0.6625,0.6568,0.673,0.6735,0.6739,0.6774,0.6783,0.679,0,0,0,0,0,0.6359,0.6411,0.6403,0.6413,0.6468,0.6514,0.6521,0.6521,0.6498,0.6523,0.6534,0.6521,0.6615,0.6587,0.6599,0.6633,0.6728,0.6734,0.6738,0.6771,0.6781,0.679,0,0,0,0,0,0,0.6392,0.6414,0.6405,0.6466,0.6488,0.6509,0.6542,0.6532,0.6562,0.6557,0.6556,0.6563,0.6619,0.6632,0.6601,0.6699,0.6668,0.6676,0.6689,0.6699,0.6706,0.6702,0.6571,0,0,0,0,0,0.6407,0.6441,0.6458,0.6511,0.6522,0.653,0.655,0.6547,0.6571,0.658,0.6595,0.6619,0.6654,0.6677,0.671,0.6776,0.6782,0.6806,0.6813,0.682,0.6826,0.6861,0.6872,0.6758,0.6758,0.6757,0,0,0.6437,0.6453,0.6475,0.6518,0.6535,0.6571,0.6538,0.6578,0.6605,0.6587,0.6639,0.6651,0.6678,0.6738,0.6765,0.675,0.6859,0.6826,0.6831,0.6834,0.6868,0.6879,0.6888,0.6761,0.676,0.676,0,0,0.651,0.6526,0.6571,0.6588,0.6613,0.6618,0.6629,0.6652,0.6658,0.671,0.6697,0.673,0.679,0.6809,0.6827,0.6907,0.6896,0.6918,0.6959,0.6993,0.7002,0.701,0.7038,0.7048,0.6925,0.6925,0.6925,0,0.6545,0.6598,0.6596,0.6636,0.6655,0.6639,0.6685,0.6702,0.6737,0.6751,0.6734,0.6808,0.6825,0.6889,0.6909,0.6924,0.6936,0.6915,0.7001,0.7009,0.7016,0.7043,0.7054,0.6927,0.6927,0.6927,0.6927,0,0.6639,0.6676,0.671,0.6743,0.6766,0.6809,0.6813,0.6837,0.6832,0.6839,0.6892,0.6912,0.6948,0.6963,0.696,0.7027,0.7017,0.7,0.6969,0.703,0.7055,0.7065,0.6931,0.693,0.6929,0.6929,0,0,0.6736,0.6766,0.6778,0.6793,0.6819,0.6848,0.689,0.6925,0.6945,0.697,0.7005,0.7056,0.704,0.7061,0.7059,0.709,0.7151,0.7069,0.707,0.7083,0.7226,0.7238,0.725,0.7144,0.7146,0.7147,0.7223,0,0.6811,0.6883,0.6882,0.695,0.6984,0.6969,0.7005,0.7026,0.7034,0.7064,0.7073,0.7109,0.7085,0.7097,0.7126,0.7137,0.718,0.7132,0.7177,0.7179,0.717,0.7263,0.7276,0.7347,0.7233,0.7235,0.7236,0,0.6908,0.6934,0.7005,0.7026,0.704,0.7073,0.7104,0.7133,0.7156,0.716,0.7182,0.7176,0.7219,0.7186,0.7247,0.7214,0.7233,0.7241,0.7244,0.7248,0.7211,0.7269,0.7369,0.738,0.7252,0.725,0.7249,0,0.697,0.7024,0.7073,0.7086,0.7111,0.7135,0.7147,0.7168,0.7188,0.7216,0.7229,0.7262,0.728,0.7305,0.7308,0.7285,0.7369,0.7337,0.7373,0.7373,0.7392,0.739,0.7496,0.7404,0.7404,0.7404,0.7404,0,0.7054,0.7097,0.7101,0.7131,0.718,0.7178,0.7227,0.7236,0.7255,0.7287,0.7277,0.7308,0.731,0.7342,0.7345,0.7394,0.7403,0.7407,0.7407,0.7407,0.7407,0.7419,0.7414,0.7407,0.7406,0.7406,0.7405,0,0.7131,0.7136,0.7188,0.7207,0.7213,0.7248,0.7265,0.7294,0.73,0.7341,0.7351,0.7361,0.7398,0.7403,0.7447,0.7449,0.7508,0.7503,0.75,0.7499,0.7535,0.7531,0.7652,0.7668,0.7566,0.7567,0.7568,0,0.7184,0.7217,0.724,0.726,0.7273,0.7306,0.7326,0.7326,0.7348,0.7376,0.7402,0.7437,0.7465,0.7525,0.7537,0.757,0.7566,0.7606,0.7571,0.7571,0.7566,0.7564,0.7567,0.7613,0.7614,0.7615,0.7616,0,0.7277,0.7277,0.7306,0.7336,0.736,0.7384,0.7407,0.7424,0.7427,0.7452,0.7489,0.7511,0.7554,0.759,0.7623,0.7636,0.7627,0.7627,0.7637,0.7637,0.7634,0.7636,0.7518,0.7624,0.7623,0.7622,0.7622,0.7622,0.7344,0.7372,0.7392,0.7425,0.7441,0.7462,0.749,0.7499,0.7529,0.7564,0.7562,0.7603,0.7625,0.7668,0.7683,0.7716,0.7703,0.7718,0.7721,0.7725,0.7728,0.7629,0.7722,0.7721,0.7721,0.7721,0.7721,0,0.7435,0.7447,0.7477,0.7508,0.7534,0.7522,0.7546,0.7569,0.7604,0.7625,0.7652,0.7695,0.7729,0.7743,0.7777,0.78,0.7796,0.7809,0.7807,0.781,0.7738,0.7725,0.7811,0.7811,0.7811,0.7811,0.7811,0.7811,0.7486,0.7533,0.7536,0.7591,0.7603,0.7641,0.7656,0.7676,0.7692,0.7739,0.7767,0.7775,0.7794,0.7829,0.786,0.7863,0.7876,0.789,0.7892,0.7824,0.7815,0.7806,0.7795,0.7893,0.7893,0.7961,0.7961,0.7962]},{"header":{"parameterUnit":"m.s-1","parameterCategory":1,"la1":30.2991,"la2":30.254,"lo1":-89.0895,"lo2":-89.0444,"dy":0.0017,"dx":0.0017,"nx":28,"ny":28,"refTime":"2024-05-19T09:00:00:Z","depth":0,"parameterNumber":3,"parameterNumberName":"V-component_of_WINDS"},"data":[0,0,0,0,0,0,0,0,0,0,0,0,0,0,0,0,0,0,0,0,0,0,0,0,0,0,0,0,0,0,0,0,0,0,0,0,0,0,0,0,0,0,0,0,0,0,0,0,0,0,0,0,0,0,0,0,0,0,1.5205,1.5204,0,1.5114,1.5113,1.5112,1.5025,1.5024,1.5023,1.5022,1.4923,1.4921,1.492,0,0,0,0,0,0,0,0,0,0,0,0,0,1.5301,1.53,1.5205,1.5204,1.5203,1.5114,1.5113,1.5111,1.5025,1.5024,1.5022,1.5021,1.4923,1.4922,1.492,0,0,0,0,0,0,0,0,0,0,0,0,0,1.5239,1.5299,1.5206,1.515,1.5144,1.5114,1.5112,1.5111,1.5025,1.5024,1.5022,1.5021,1.4924,1.4922,1.4919,1.4937,0,0,1.4912,1.4911,0,0,0,0,0,0,0,0,1.5243,1.5236,1.5159,1.5153,1.5147,1.5079,1.511,1.5052,1.5026,1.507,1.5022,1.502,1.4976,1.4969,1.4955,1.4932,1.4928,1.4912,1.491,1.4909,1.4908,0,0,0,0,0,0,0,1.5247,1.5239,1.5169,1.5158,1.515,1.5127,1.5117,1.5099,1.5033,1.5066,1.506,1.505,1.4972,1.4958,1.4952,1.4926,1.4912,1.491,1.4908,1.4907,1.4911,1.4912,0,0,0,0,0,0,1.5261,1.5244,1.5172,1.5166,1.5192,1.5127,1.5115,1.5102,1.5033,1.5021,1.5052,1.5046,1.4963,1.4955,1.4949,1.4963,1.4909,1.4907,1.4905,1.4909,1.4911,1.4913,0,0,0,0,0,0,1.5263,1.5255,1.5176,1.5203,1.5191,1.5127,1.5113,1.5101,1.5087,1.5022,1.5009,1.5049,1.4961,1.4952,1.494,1.4959,1.4906,1.4904,1.4907,1.491,1.4912,1.4994,0,0,0,0,0,0,1.5266,1.5257,1.5264,1.5204,1.519,1.5171,1.5114,1.5101,1.5084,1.5076,1.5017,1.5005,1.4959,1.4944,1.4938,1.4954,1.4902,1.4905,1.4908,1.4911,1.4989,1.4999,1.5007,0,0,0,0,0,1.527,1.529,1.5265,1.5257,1.5198,1.5172,1.5164,1.5112,1.5086,1.5091,1.5049,1.5007,1.4958,1.4944,1.4936,1.4952,1.4904,1.4907,1.4911,1.4985,1.4997,1.5007,0,0,0,0,0,0,1.5353,1.5281,1.5252,1.5254,1.522,1.5158,1.5163,1.5126,1.5098,1.5092,1.5027,1.5014,1.5009,1.4979,1.4965,1.4964,1.4925,1.4927,1.4984,1.4995,1.5003,1.5011,1.49,0,0,0,0,0,1.5371,1.5358,1.5295,1.5302,1.5287,1.5228,1.5215,1.5178,1.5139,1.5124,1.5081,1.5044,1.502,1.5006,1.498,1.4984,1.4969,1.4991,1.5,1.5008,1.501,1.5009,1.5018,1.4924,1.4924,1.4924,0,0,1.5409,1.5368,1.5363,1.5318,1.5287,1.5273,1.5217,1.5204,1.5193,1.5122,1.5108,1.5076,1.503,1.5026,1.5022,1.5001,1.5033,1.5012,1.5019,1.5017,1.5013,1.5022,1.503,1.4926,1.4926,1.4926,0,0,1.5471,1.5439,1.5441,1.5412,1.5366,1.5327,1.5328,1.5271,1.5247,1.5233,1.5179,1.5163,1.5123,1.5093,1.5072,1.5121,1.5081,1.5114,1.516,1.516,1.5167,1.5174,1.519,1.5197,1.5117,1.5117,1.5117,0,1.5523,1.5501,1.5447,1.5438,1.5418,1.5355,1.5356,1.5329,1.5277,1.5265,1.5242,1.519,1.5154,1.5142,1.5154,1.514,1.5137,1.5121,1.5171,1.5177,1.5182,1.5197,1.5204,1.5121,1.5121,1.512,1.512,0,1.5567,1.5553,1.556,1.5513,1.5494,1.549,1.5433,1.5421,1.5385,1.5348,1.5333,1.5289,1.5252,1.5246,1.5211,1.5229,1.5217,1.5184,1.5143,1.5196,1.5209,1.5215,1.5128,1.5126,1.5125,1.5124,0,0,1.5679,1.5602,1.5605,1.5583,1.5528,1.5514,1.5506,1.5472,1.5463,1.5428,1.5419,1.5387,1.5355,1.5332,1.5292,1.5292,1.5333,1.5258,1.5256,1.5273,1.5348,1.5374,1.5382,1.5306,1.5306,1.5307,1.5352,0,1.5731,1.5715,1.5666,1.5664,1.5649,1.5588,1.5581,1.5545,1.551,1.5491,1.545,1.5429,1.5389,1.5374,1.5371,1.5329,1.5347,1.5325,1.5295,1.5295,1.5309,1.5389,1.5416,1.5461,1.5357,1.5358,1.5358,0,1.579,1.5761,1.5759,1.5704,1.5696,1.5691,1.5655,1.5638,1.5596,1.557,1.5544,1.5499,1.5486,1.5448,1.5427,1.5413,1.5398,1.5375,1.5375,1.537,1.533,1.5386,1.5474,1.5481,1.5366,1.5365,1.5365,0,1.5871,1.5832,1.5825,1.5808,1.5743,1.5741,1.5714,1.567,1.5652,1.562,1.5608,1.5575,1.5556,1.553,1.5478,1.5455,1.5462,1.5421,1.5439,1.5441,1.5444,1.5444,1.553,1.5434,1.5434,1.5434,1.5434,0,1.5935,1.5936,1.5861,1.5857,1.5855,1.5797,1.5796,1.5763,1.5724,1.5711,1.5656,1.5644,1.5575,1.5555,1.5514,1.5502,1.5494,1.5472,1.5461,1.5477,1.548,1.5466,1.5461,1.5436,1.5435,1.5435,1.5435,0,1.6025,1.5976,1.5964,1.5904,1.5889,1.5891,1.5838,1.5831,1.5792,1.5776,1.5769,1.5708,1.5681,1.5626,1.5584,1.5556,1.5554,1.5534,1.5569,1.5562,1.5584,1.5583,1.5664,1.5671,1.5572,1.5573,1.5574,0,1.6069,1.6069,1.6009,1.5997,1.5973,1.5954,1.5936,1.5878,1.5861,1.5813,1.5811,1.578,1.5753,1.5713,1.5663,1.563,1.5609,1.564,1.5604,1.562,1.5609,1.561,1.5609,1.5648,1.565,1.5651,1.5652,0,1.6152,1.6128,1.6105,1.6074,1.6054,1.6026,1.5995,1.5988,1.5922,1.5905,1.5879,1.5858,1.5815,1.5785,1.5745,1.5714,1.5672,1.5664,1.5666,1.5683,1.5703,1.5692,1.5591,1.5662,1.5661,1.566,1.566,1.5659,1.622,1.6217,1.6174,1.6151,1.6121,1.6093,1.6084,1.6044,1.6021,1.5983,1.595,1.5926,1.5881,1.5823,1.5795,1.5774,1.5754,1.5757,1.5758,1.576,1.5767,1.5706,1.5767,1.5766,1.5766,1.5766,1.5765,0,1.63,1.627,1.6249,1.6208,1.6188,1.6152,1.6115,1.6101,1.6081,1.6044,1.6019,1.5987,1.5958,1.5906,1.5871,1.5864,1.5844,1.5857,1.5857,1.585,1.5788,1.5789,1.5874,1.5874,1.5874,1.5874,1.5874,1.5874,1.634,1.6331,1.6302,1.6278,1.6246,1.6224,1.6206,1.6179,1.615,1.6118,1.6094,1.606,1.6017,1.5979,1.5949,1.5934,1.5924,1.5943,1.5922,1.5865,1.5855,1.5845,1.5846,1.5942,1.5942,1.5987,1.5987,1.5987]}]]